Wetterdaten: Dienstag, 12.06.2012
Datum Zeit Temperatur Luftfeuchte Regen Wind Richtung Richtung Taupunkt Windchill Windben
12.06.2012 00:00 10,4 C 80 % 0,0 l/m 0,8 km/h (0 Bft) S-SO 157 7,1 C 10,6 C 2,4 km/h (1 Bft)
12.06.2012 00:05 10,3 C 80 % 0,0 l/m 0,6 km/h (0 Bft) S 180 7,0 C 10,5 C 2,3 km/h (1 Bft)
12.06.2012 00:10 10,3 C 80 % 0,0 l/m 0,8 km/h (0 Bft) N-NO 22 7,0 C 10,5 C 1,8 km/h (1 Bft)
12.06.2012 00:15 10,3 C 80 % 0,0 l/m 0,8 km/h (0 Bft) SO 135 7,0 C 10,4 C 0,0 km/h (0 Bft)
12.06.2012 00:20 10,2 C 80 % 0,0 l/m 1,4 km/h (1 Bft) S-SW 202 6,9 C 10,5 C 3,4 km/h (1 Bft)
12.06.2012 00:25 10,1 C 80 % 0,0 l/m 1,6 km/h (1 Bft) O 90 6,8 C 10,5 C 2,1 km/h (1 Bft)
12.06.2012 00:30 10,2 C 80 % 0,0 l/m 1,3 km/h (1 Bft) S-SO 157 6,9 C 10,5 C 0,0 km/h (0 Bft)
12.06.2012 00:35 10,1 C 80 % 0,0 l/m 1,1 km/h (1 Bft) N-NO 22 6,8 C 10,4 C 0,0 km/h (0 Bft)
12.06.2012 00:40 10,0 C 80 % 0,0 l/m 0,6 km/h (0 Bft) W-SW 247 6,7 C 10,4 C 0,0 km/h (0 Bft)
12.06.2012 00:45 9,9 C 80 % 0,0 l/m 0,3 km/h (0 Bft) S 180 6,6 C 10,2 C 0,0 km/h (0 Bft)
12.06.2012 00:50 9,9 C 80 % 0,0 l/m 0,3 km/h (0 Bft) S 180 6,6 C 10,1 C 0,0 km/h (0 Bft)
12.06.2012 00:55 9,9 C 80 % 0,0 l/m 0,2 km/h (0 Bft) S 180 6,6 C 10,0 C 0,0 km/h (0 Bft)
12.06.2012 01:00 9,8 C 81 % 0,0 l/m 1,0 km/h (0 Bft) N-NW 337 6,7 C 10,0 C 0,0 km/h (0 Bft)
12.06.2012 01:05 9,8 C 81 % 0,0 l/m 1,3 km/h (1 Bft) S-SW 202 6,7 C 9,9 C 2,3 km/h (1 Bft)
12.06.2012 01:10 9,6 C 81 % 0,0 l/m 0,8 km/h (0 Bft) SW 225 6,5 C 9,9 C 0,0 km/h (0 Bft)
12.06.2012 01:15 9,4 C 81 % 0,0 l/m 0,5 km/h (0 Bft) S 180 6,3 C 9,8 C 0,0 km/h (0 Bft)
12.06.2012 01:20 9,4 C 81 % 0,0 l/m 0,5 km/h (0 Bft) SO 135 6,3 C 9,4 C 4,2 km/h (1 Bft)
12.06.2012 01:25 9,5 C 82 % 0,0 l/m 0,5 km/h (0 Bft) N-NW 337 6,6 C 9,5 C 0,0 km/h (0 Bft)
12.06.2012 01:30 9,6 C 82 % 0,0 l/m 0,3 km/h (0 Bft) W-NW 292 6,7 C 9,5 C 0,0 km/h (0 Bft)
12.06.2012 01:35 9,5 C 82 % 0,0 l/m 0,3 km/h (0 Bft) O 90 6,6 C 9,6 C 0,0 km/h (0 Bft)
12.06.2012 01:40 9,4 C 81 % 0,0 l/m 0,3 km/h (0 Bft) N-NO 22 6,3 C 9,5 C 0,0 km/h (0 Bft)
12.06.2012 01:45 9,5 C 81 % 0,0 l/m 0,5 km/h (0 Bft) S-SW 202 6,4 C 9,5 C 2,4 km/h (1 Bft)
12.06.2012 01:50 9,6 C 81 % 0,0 l/m 0,6 km/h (0 Bft) W-NW 292 6,5 C 9,6 C 2,1 km/h (1 Bft)
12.06.2012 01:55 9,7 C 81 % 0,0 l/m 0,5 km/h (0 Bft) W-SW 247 6,6 C 9,7 C 0,0 km/h (0 Bft)
12.06.2012 02:00 9,6 C 80 % 0,0 l/m 0,2 km/h (0 Bft) W 270 6,3 C 9,6 C 0,0 km/h (0 Bft)
12.06.2012 02:05 9,6 C 81 % 0,0 l/m 0,0 km/h (0 Bft) SO 135 6,5 C 9,6 C 0,0 km/h (0 Bft)
12.06.2012 02:10 9,6 C 80 % 0,0 l/m 0,0 km/h (0 Bft) O 90 6,3 C 9,7 C 0,0 km/h (0 Bft)
12.06.2012 02:15 9,7 C 80 % 0,0 l/m 0,2 km/h (0 Bft) SO 135 6,4 C 9,7 C 0,0 km/h (0 Bft)
12.06.2012 02:20 9,7 C 81 % 0,0 l/m 0,3 km/h (0 Bft) O 90 6,6 C 9,8 C 3,5 km/h (1 Bft)
12.06.2012 02:25 9,7 C 81 % 0,0 l/m 0,6 km/h (0 Bft) S-SW 202 6,6 C 9,8 C 2,1 km/h (1 Bft)
12.06.2012 02:30 9,6 C 81 % 0,0 l/m 0,6 km/h (0 Bft) O-SO 112 6,5 C 9,9 C 4,8 km/h (1 Bft)
12.06.2012 02:35 9,5 C 81 % 0,0 l/m 0,3 km/h (0 Bft) N-NW 337 6,4 C 9,8 C 1,8 km/h (1 Bft)
12.06.2012 02:40 9,5 C 82 % 0,0 l/m 0,3 km/h (0 Bft) S-SW 202 6,6 C 9,6 C 0,0 km/h (0 Bft)
12.06.2012 02:45 9,5 C 82 % 0,0 l/m 0,3 km/h (0 Bft) N 360 6,6 C 9,6 C 0,0 km/h (0 Bft)
12.06.2012 02:50 9,4 C 82 % 0,0 l/m 0,3 km/h (0 Bft) W 270 6,5 C 9,6 C 1,6 km/h (1 Bft)
12.06.2012 02:55 9,3 C 82 % 0,0 l/m 0,2 km/h (0 Bft) SO 135 6,4 C 9,5 C 0,0 km/h (0 Bft)
12.06.2012 03:00 9,2 C 82 % 0,0 l/m 0,2 km/h (0 Bft) S 180 6,3 C 9,4 C 1,9 km/h (1 Bft)
12.06.2012 03:05 9,4 C 82 % 0,0 l/m 0,3 km/h (0 Bft) S-SO 157 6,5 C 9,3 C 2,3 km/h (1 Bft)
12.06.2012 03:10 9,2 C 82 % 0,0 l/m 0,8 km/h (0 Bft) S 180 6,3 C 9,3 C 5,1 km/h (1 Bft)
12.06.2012 03:15 9,1 C 82 % 0,0 l/m 1,0 km/h (0 Bft) S-SW 202 6,2 C 9,4 C 0,0 km/h (0 Bft)
12.06.2012 03:20 9,2 C 82 % 0,0 l/m 1,0 km/h (0 Bft) SW 225 6,3 C 9,4 C 0,0 km/h (0 Bft)
12.06.2012 03:25 9,2 C 82 % 0,0 l/m 0,8 km/h (0 Bft) S 180 6,3 C 9,3 C 0,0 km/h (0 Bft)
12.06.2012 03:30 9,1 C 82 % 0,0 l/m 1,3 km/h (1 Bft) S-SO 157 6,2 C 9,3 C 2,3 km/h (1 Bft)
12.06.2012 03:35 9,2 C 82 % 0,0 l/m 1,9 km/h (1 Bft) NW 315 6,3 C 9,3 C 2,7 km/h (1 Bft)
12.06.2012 03:40 9,3 C 82 % 0,0 l/m 2,3 km/h (1 Bft) SW 225 6,4 C 9,4 C 5,3 km/h (1 Bft)
12.06.2012 03:45 9,1 C 82 % 0,0 l/m 1,1 km/h (1 Bft) W-NW 292 6,2 C 9,3 C 0,0 km/h (0 Bft)
12.06.2012 03:50 9,0 C 82 % 0,0 l/m 0,2 km/h (0 Bft) S-SW 202 6,1 C 9,1 C 0,0 km/h (0 Bft)
12.06.2012 03:55 8,9 C 82 % 0,0 l/m 0,2 km/h (0 Bft) W-SW 247 6,0 C 9,0 C 0,0 km/h (0 Bft)
12.06.2012 04:00 8,8 C 82 % 0,0 l/m 0,2 km/h (0 Bft) S 180 5,9 C 8,8 C 0,0 km/h (0 Bft)
12.06.2012 04:05 8,8 C 83 % 0,0 l/m 0,2 km/h (0 Bft) W-SW 247 6,1 C 8,8 C 0,0 km/h (0 Bft)
12.06.2012 04:10 8,9 C 82 % 0,0 l/m 0,0 km/h (0 Bft) N-NO 22 6,0 C 8,7 C 0,0 km/h (0 Bft)
12.06.2012 04:15 8,9 C 82 % 0,0 l/m 0,0 km/h (0 Bft) N-NW 337 6,0 C 8,6 C 0,0 km/h (0 Bft)
12.06.2012 04:20 8,7 C 82 % 0,0 l/m 0,0 km/h (0 Bft) N 360 5,8 C 8,5 C 0,0 km/h (0 Bft)
12.06.2012 04:25 8,8 C 83 % 0,0 l/m 0,0 km/h (0 Bft) N-NW 337 6,1 C 8,5 C 0,0 km/h (0 Bft)
12.06.2012 04:30 8,8 C 83 % 0,0 l/m 0,3 km/h (0 Bft) N-NW 337 6,1 C 8,5 C 1,8 km/h (1 Bft)
12.06.2012 04:35 8,8 C 83 % 0,0 l/m 0,3 km/h (0 Bft) N 360 6,1 C 8,5 C 0,0 km/h (0 Bft)
12.06.2012 04:40 8,7 C 83 % 0,0 l/m 0,2 km/h (0 Bft) N-NO 22 6,0 C 8,5 C 0,0 km/h (0 Bft)
12.06.2012 04:45 8,8 C 84 % 0,0 l/m 0,2 km/h (0 Bft) N 360 6,2 C 8,4 C 0,0 km/h (0 Bft)
12.06.2012 04:50 8,7 C 84 % 0,0 l/m 0,0 km/h (0 Bft) SO 135 6,2 C 8,4 C 0,0 km/h (0 Bft)
12.06.2012 04:55 8,6 C 84 % 0,0 l/m 0,0 km/h (0 Bft) W 270 6,1 C 8,3 C 0,0 km/h (0 Bft)
12.06.2012 05:00 8,6 C 85 % 0,0 l/m 0,2 km/h (0 Bft) W 270 6,2 C 8,3 C 0,0 km/h (0 Bft)
12.06.2012 05:05 8,4 C 85 % 0,0 l/m 0,2 km/h (0 Bft) NO 45 6,0 C 8,3 C 0,0 km/h (0 Bft)
12.06.2012 05:10 8,5 C 85 % 0,0 l/m 0,5 km/h (0 Bft) NO 45 6,1 C 8,2 C 0,0 km/h (0 Bft)
12.06.2012 05:15 8,5 C 85 % 0,0 l/m 0,5 km/h (0 Bft) N 360 6,1 C 8,2 C 0,0 km/h (0 Bft)
12.06.2012 05:20 8,5 C 86 % 0,0 l/m 0,2 km/h (0 Bft) W 270 6,3 C 8,1 C 0,0 km/h (0 Bft)
12.06.2012 05:25 8,4 C 86 % 0,0 l/m 0,0 km/h (0 Bft) W 270 6,2 C 8,1 C 0,0 km/h (0 Bft)
12.06.2012 05:30 8,4 C 86 % 0,0 l/m 0,0 km/h (0 Bft) NO 45 6,2 C 8,1 C 0,0 km/h (0 Bft)
12.06.2012 05:35 8,6 C 86 % 0,0 l/m 0,0 km/h (0 Bft) N 360 6,4 C 8,1 C 0,0 km/h (0 Bft)
12.06.2012 05:40 8,6 C 86 % 0,0 l/m 0,0 km/h (0 Bft) N-NO 22 6,4 C 8,3 C 0,0 km/h (0 Bft)
12.06.2012 05:45 8,7 C 86 % 0,0 l/m 0,0 km/h (0 Bft) S 180 6,5 C 8,6 C 0,0 km/h (0 Bft)
12.06.2012 05:50 8,7 C 86 % 0,0 l/m 0,0 km/h (0 Bft) S 180 6,5 C 8,7 C 0,0 km/h (0 Bft)
12.06.2012 05:55 8,7 C 86 % 0,0 l/m 0,0 km/h (0 Bft) S-SO 157 6,5 C 8,6 C 2,1 km/h (1 Bft)
12.06.2012 06:00 8,8 C 86 % 0,0 l/m 0,2 km/h (0 Bft) W 270 6,6 C 8,6 C 0,0 km/h (0 Bft)
12.06.2012 06:05 8,8 C 86 % 0,0 l/m 0,5 km/h (0 Bft) W-NW 292 6,6 C 8,6 C 0,0 km/h (0 Bft)
12.06.2012 06:10 8,8 C 86 % 0,0 l/m 0,2 km/h (0 Bft) N-NO 22 6,6 C 8,6 C 0,0 km/h (0 Bft)
12.06.2012 06:15 8,9 C 86 % 0,0 l/m 0,0 km/h (0 Bft) N-NW 337 6,7 C 8,6 C 0,0 km/h (0 Bft)
12.06.2012 06:20 9,0 C 85 % 0,0 l/m 0,3 km/h (0 Bft) N 360 6,6 C 8,8 C 0,0 km/h (0 Bft)
12.06.2012 06:25 9,2 C 85 % 0,0 l/m 0,6 km/h (0 Bft) N-NW 337 6,8 C 8,9 C 0,0 km/h (0 Bft)
12.06.2012 06:30 9,2 C 85 % 0,0 l/m 0,5 km/h (0 Bft) S 180 6,8 C 9,0 C 0,0 km/h (0 Bft)
12.06.2012 06:35 9,2 C 85 % 0,0 l/m 0,2 km/h (0 Bft) O-SO 112 6,8 C 9,0 C 0,0 km/h (0 Bft)
12.06.2012 06:40 9,1 C 85 % 0,0 l/m 0,0 km/h (0 Bft) N-NO 22 6,7 C 9,0 C 0,0 km/h (0 Bft)
12.06.2012 06:45 9,2 C 85 % 0,0 l/m 0,0 km/h (0 Bft) S 180 6,8 C 9,0 C 0,0 km/h (0 Bft)
12.06.2012 06:50 9,3 C 85 % 0,0 l/m 0,0 km/h (0 Bft) S 180 6,9 C 9,0 C 0,0 km/h (0 Bft)
12.06.2012 06:55 9,3 C 85 % 0,0 l/m 0,0 km/h (0 Bft) S 180 6,9 C 9,1 C 0,0 km/h (0 Bft)
12.06.2012 07:00 9,4 C 85 % 0,0 l/m 0,0 km/h (0 Bft) S 180 7,0 C 9,2 C 0,0 km/h (0 Bft)
12.06.2012 07:05 9,5 C 85 % 0,0 l/m 0,0 km/h (0 Bft) S 180 7,1 C 9,2 C 0,0 km/h (0 Bft)
12.06.2012 07:10 9,6 C 85 % 0,0 l/m 0,5 km/h (0 Bft) SO 135 7,2 C 9,4 C 1,9 km/h (1 Bft)
12.06.2012 07:15 9,7 C 85 % 0,0 l/m 0,5 km/h (0 Bft) S 180 7,3 C 9,6 C 0,0 km/h (0 Bft)
12.06.2012 07:20 9,8 C 85 % 0,0 l/m 0,2 km/h (0 Bft) N 360 7,4 C 9,7 C 0,0 km/h (0 Bft)
12.06.2012 07:25 9,9 C 85 % 0,0 l/m 0,0 km/h (0 Bft) W-SW 247 7,5 C 9,8 C 0,0 km/h (0 Bft)
12.06.2012 07:30 10,0 C 85 % 0,0 l/m 0,0 km/h (0 Bft) NO 45 7,6 C 10,0 C 1,8 km/h (1 Bft)
12.06.2012 07:35 10,1 C 85 % 0,0 l/m 0,2 km/h (0 Bft) SO 135 7,7 C 10,1 C 0,0 km/h (0 Bft)
12.06.2012 07:40 10,4 C 84 % 0,0 l/m 0,2 km/h (0 Bft) S-SO 157 7,8 C 10,3 C 0,0 km/h (0 Bft)
12.06.2012 07:45 10,5 C 84 % 0,0 l/m 0,0 km/h (0 Bft) S-SW 202 7,9 C 10,4 C 0,0 km/h (0 Bft)
12.06.2012 07:50 10,7 C 84 % 0,0 l/m 0,0 km/h (0 Bft) S 180 8,1 C 10,7 C 0,0 km/h (0 Bft)
12.06.2012 07:55 10,9 C 83 % 0,0 l/m 0,2 km/h (0 Bft) S 180 8,1 C 10,9 C 1,8 km/h (1 Bft)
12.06.2012 08:00 11,1 C 82 % 0,0 l/m 1,1 km/h (1 Bft) S 180 8,1 C 11,2 C 1,9 km/h (1 Bft)
12.06.2012 08:05 11,3 C 81 % 0,0 l/m 1,4 km/h (1 Bft) O-SO 112 8,2 C 11,4 C 2,9 km/h (1 Bft)
12.06.2012 08:10 11,3 C 79 % 0,0 l/m 0,8 km/h (0 Bft) S 180 7,8 C 11,7 C 1,9 km/h (1 Bft)
12.06.2012 08:15 11,4 C 79 % 0,0 l/m 1,1 km/h (1 Bft) S 180 7,9 C 11,8 C 2,6 km/h (1 Bft)
12.06.2012 08:20 11,6 C 78 % 0,0 l/m 1,1 km/h (1 Bft) S-SO 157 7,9 C 12,0 C 0,0 km/h (0 Bft)
12.06.2012 08:25 11,9 C 79 % 0,0 l/m 1,0 km/h (0 Bft) SO 135 8,4 C 12,2 C 0,0 km/h (0 Bft)
12.06.2012 08:30 11,8 C 78 % 0,0 l/m 0,5 km/h (0 Bft) SO 135 8,1 C 12,4 C 0,0 km/h (0 Bft)
12.06.2012 08:35 11,9 C 78 % 0,0 l/m 0,2 km/h (0 Bft) SW 225 8,2 C 12,5 C 0,0 km/h (0 Bft)
12.06.2012 08:40 12,0 C 77 % 0,0 l/m 0,0 km/h (0 Bft) S-SO 157 8,1 C 12,6 C 0,0 km/h (0 Bft)
12.06.2012 08:45 12,1 C 77 % 0,0 l/m 0,0 km/h (0 Bft) S-SW 202 8,2 C 12,7 C 0,0 km/h (0 Bft)
12.06.2012 08:50 12,3 C 76 % 0,0 l/m 0,0 km/h (0 Bft) O-SO 112 8,2 C 13,1 C 0,0 km/h (0 Bft)
12.06.2012 08:55 12,2 C 76 % 0,0 l/m 0,2 km/h (0 Bft) S 180 8,1 C 13,1 C 2,1 km/h (1 Bft)
12.06.2012 09:00 12,2 C 76 % 0,0 l/m 0,6 km/h (0 Bft) S-SW 202 8,1 C 13,1 C 0,0 km/h (0 Bft)
12.06.2012 09:05 12,3 C 76 % 0,0 l/m 1,0 km/h (0 Bft) S 180 8,2 C 13,1 C 0,0 km/h (0 Bft)
12.06.2012 09:10 12,5 C 75 % 0,0 l/m 1,3 km/h (1 Bft) O-SO 112 8,2 C 13,2 C 2,3 km/h (1 Bft)
12.06.2012 09:15 12,7 C 75 % 0,0 l/m 1,3 km/h (1 Bft) O 90 8,4 C 13,2 C 0,0 km/h (0 Bft)
12.06.2012 09:20 12,7 C 75 % 0,0 l/m 1,0 km/h (0 Bft) SO 135 8,4 C 13,4 C 1,9 km/h (1 Bft)
12.06.2012 09:25 12,7 C 75 % 0,0 l/m 1,0 km/h (0 Bft) S 180 8,4 C 13,4 C 1,9 km/h (1 Bft)
12.06.2012 09:30 13,2 C 74 % 0,0 l/m 1,1 km/h (1 Bft) S-SO 157 8,7 C 13,6 C 3,4 km/h (1 Bft)
12.06.2012 09:35 13,5 C 74 % 0,0 l/m 1,3 km/h (1 Bft) W-SW 247 9,0 C 13,9 C 1,6 km/h (1 Bft)
12.06.2012 09:40 13,5 C 72 % 0,0 l/m 1,8 km/h (1 Bft) S-SW 202 8,6 C 14,3 C 2,1 km/h (1 Bft)
12.06.2012 09:45 13,6 C 71 % 0,0 l/m 1,8 km/h (1 Bft) SO 135 8,4 C 14,4 C 2,3 km/h (1 Bft)
12.06.2012 09:50 13,5 C 71 % 0,0 l/m 1,9 km/h (1 Bft) S 180 8,3 C 14,5 C 3,4 km/h (1 Bft)
12.06.2012 09:55 13,4 C 71 % 0,0 l/m 1,4 km/h (1 Bft) SO 135 8,3 C 14,3 C 3,4 km/h (1 Bft)
12.06.2012 10:00 13,2 C 71 % 0,0 l/m 1,6 km/h (1 Bft) S-SO 157 8,1 C 14,1 C 2,1 km/h (1 Bft)
12.06.2012 10:05 13,3 C 72 % 0,0 l/m 2,3 km/h (1 Bft) S-SW 202 8,4 C 14,1 C 0,0 km/h (0 Bft)
12.06.2012 10:10 13,4 C 73 % 0,0 l/m 2,1 km/h (1 Bft) NO 45 8,7 C 13,9 C 2,7 km/h (1 Bft)
12.06.2012 10:15 13,3 C 73 % 0,0 l/m 1,6 km/h (1 Bft) S-SO 157 8,6 C 13,9 C 3,7 km/h (1 Bft)
12.06.2012 10:20 13,2 C 73 % 0,0 l/m 1,9 km/h (1 Bft) S-SW 202 8,5 C 13,6 C 2,7 km/h (1 Bft)
12.06.2012 10:25 13,1 C 73 % 0,0 l/m 2,3 km/h (1 Bft) S 180 8,4 C 13,1 C 4,2 km/h (1 Bft)
12.06.2012 10:30 13,2 C 73 % 0,0 l/m 2,6 km/h (1 Bft) S 180 8,5 C 13,0 C 4,5 km/h (1 Bft)
12.06.2012 10:35 13,3 C 73 % 0,0 l/m 2,6 km/h (1 Bft) W-SW 247 8,6 C 12,9 C 1,9 km/h (1 Bft)
12.06.2012 10:40 13,3 C 73 % 0,0 l/m 2,1 km/h (1 Bft) SO 135 8,6 C 13,1 C 1,8 km/h (1 Bft)
12.06.2012 10:45 13,3 C 73 % 0,0 l/m 2,3 km/h (1 Bft) SW 225 8,6 C 13,1 C 3,7 km/h (1 Bft)
12.06.2012 10:50 13,1 C 74 % 0,0 l/m 3,1 km/h (1 Bft) S 180 8,6 C 12,9 C 7,4 km/h (2 Bft)
12.06.2012 10:55 13,2 C 75 % 0,0 l/m 3,5 km/h (1 Bft) S-SO 157 8,9 C 13,0 C 6,3 km/h (2 Bft)
12.06.2012 11:00 13,5 C 76 % 0,0 l/m 3,4 km/h (1 Bft) O-SO 112 9,4 C 13,1 C 5,5 km/h (1 Bft)
12.06.2012 11:05 13,4 C 75 % 0,0 l/m 3,2 km/h (1 Bft) S-SO 157 9,1 C 13,2 C 3,7 km/h (1 Bft)
12.06.2012 11:10 13,3 C 75 % 0,0 l/m 3,2 km/h (1 Bft) SO 135 9,0 C 13,1 C 4,5 km/h (1 Bft)
12.06.2012 11:15 13,2 C 75 % 0,0 l/m 3,2 km/h (1 Bft) S-SO 157 8,9 C 12,9 C 4,8 km/h (1 Bft)
12.06.2012 11:20 13,1 C 75 % 0,0 l/m 3,5 km/h (1 Bft) S 180 8,8 C 12,7 C 4,3 km/h (1 Bft)
12.06.2012 11:25 13,0 C 75 % 0,0 l/m 3,7 km/h (1 Bft) S-SO 157 8,7 C 12,7 C 1,9 km/h (1 Bft)
12.06.2012 11:30 13,2 C 74 % 0,0 l/m 2,7 km/h (1 Bft) S 180 8,7 C 12,9 C 4,3 km/h (1 Bft)
12.06.2012 11:35 13,3 C 74 % 0,0 l/m 2,4 km/h (1 Bft) S 180 8,8 C 13,2 C 3,4 km/h (1 Bft)
12.06.2012 11:40 13,5 C 74 % 0,0 l/m 3,1 km/h (1 Bft) S 180 9,0 C 13,6 C 4,8 km/h (1 Bft)
12.06.2012 11:45 13,5 C 73 % 0,0 l/m 3,1 km/h (1 Bft) S 180 8,8 C 13,6 C 4,3 km/h (1 Bft)
12.06.2012 11:50 13,7 C 70 % 0,0 l/m 2,9 km/h (1 Bft) S-SW 202 8,3 C 13,9 C 5,1 km/h (1 Bft)
12.06.2012 11:55 13,7 C 71 % 0,0 l/m 2,7 km/h (1 Bft) S-SO 157 8,5 C 14,1 C 3,4 km/h (1 Bft)
12.06.2012 12:00 13,7 C 70 % 0,0 l/m 3,7 km/h (1 Bft) S-SO 157 8,3 C 14,0 C 7,6 km/h (2 Bft)
12.06.2012 12:05 13,7 C 70 % 0,0 l/m 3,2 km/h (1 Bft) S-SO 157 8,3 C 14,0 C 0,0 km/h (0 Bft)
12.06.2012 12:10 13,7 C 71 % 0,0 l/m 2,4 km/h (1 Bft) S-SO 157 8,5 C 14,1 C 3,1 km/h (1 Bft)
12.06.2012 12:15 13,8 C 71 % 0,0 l/m 2,1 km/h (1 Bft) S 180 8,6 C 14,3 C 2,1 km/h (1 Bft)
12.06.2012 12:20 13,8 C 72 % 0,0 l/m 2,3 km/h (1 Bft) SO 135 8,8 C 14,3 C 3,1 km/h (1 Bft)
12.06.2012 12:25 13,5 C 72 % 0,0 l/m 3,4 km/h (1 Bft) O-SO 112 8,6 C 14,1 C 6,4 km/h (2 Bft)
12.06.2012 12:30 13,4 C 74 % 0,0 l/m 3,7 km/h (1 Bft) S-SO 157 8,9 C 13,4 C 9,0 km/h (2 Bft)
12.06.2012 12:35 13,3 C 74 % 0,0 l/m 3,1 km/h (1 Bft) O-SO 112 8,8 C 13,1 C 3,2 km/h (1 Bft)
12.06.2012 12:40 13,1 C 75 % 0,0 l/m 3,4 km/h (1 Bft) SO 135 8,8 C 12,9 C 5,6 km/h (1 Bft)
12.06.2012 12:45 12,7 C 76 % 0,0 l/m 3,7 km/h (1 Bft) N-NO 22 8,6 C 12,5 C 4,2 km/h (1 Bft)
12.06.2012 12:50 12,4 C 77 % 0,0 l/m 2,6 km/h (1 Bft) O-SO 112 8,5 C 12,2 C 1,9 km/h (1 Bft)
12.06.2012 12:55 12,0 C 79 % 0,0 l/m 2,3 km/h (1 Bft) SO 135 8,5 C 11,7 C 6,0 km/h (2 Bft)
12.06.2012 13:00 11,5 C 82 % 0,0 l/m 4,2 km/h (1 Bft) O-SO 112 8,5 C 11,0 C 9,5 km/h (2 Bft)
12.06.2012 13:05 11,2 C 85 % 0,7 l/m 5,0 km/h (1 Bft) O-SO 112 8,8 C 10,8 C 6,4 km/h (2 Bft)
12.06.2012 13:10 11,0 C 87 % 0,7 l/m 5,1 km/h (1 Bft) SO 135 8,9 C 10,4 C 11,7 km/h (2 Bft)
12.06.2012 13:15 11,0 C 87 % 0,0 l/m 6,0 km/h (2 Bft) SO 135 8,9 C 10,1 C 9,0 km/h (2 Bft)
12.06.2012 13:20 10,7 C 88 % 0,0 l/m 6,8 km/h (2 Bft) SO 135 8,8 C 9,4 C 14,8 km/h (3 Bft)
12.06.2012 13:25 10,5 C 88 % 0,7 l/m 7,1 km/h (2 Bft) O-NO 67 8,6 C 9,0 C 5,0 km/h (1 Bft)
12.06.2012 13:30 10,3 C 89 % 0,7 l/m 7,6 km/h (2 Bft) S-SO 157 8,6 C 8,3 C 17,2 km/h (3 Bft)
12.06.2012 13:35 10,2 C 89 % 0,0 l/m 7,6 km/h (2 Bft) N-NO 22 8,5 C 8,2 C 7,2 km/h (2 Bft)
12.06.2012 13:40 10,2 C 89 % 0,7 l/m 7,9 km/h (2 Bft) O-NO 67 8,5 C 7,8 C 8,0 km/h (2 Bft)
12.06.2012 13:45 10,1 C 90 % 0,0 l/m 7,1 km/h (2 Bft) S 180 8,5 C 8,6 C 7,7 km/h (2 Bft)
12.06.2012 13:50 9,8 C 90 % 0,7 l/m 7,6 km/h (2 Bft) SO 135 8,2 C 7,8 C 5,0 km/h (1 Bft)
12.06.2012 13:55 9,6 C 90 % 0,7 l/m 8,9 km/h (2 Bft) O-SO 112 8,0 C 6,5 C 7,4 km/h (2 Bft)
12.06.2012 14:00 9,3 C 90 % 0,7 l/m 10,0 km/h (2 Bft) S-SO 157 7,7 C 5,1 C 18,2 km/h (3 Bft)
12.06.2012 14:05 9,4 C 90 % 0,0 l/m 9,7 km/h (2 Bft) O-SO 112 7,8 C 5,4 C 14,0 km/h (3 Bft)
12.06.2012 14:10 9,4 C 91 % 0,7 l/m 8,9 km/h (2 Bft) O-SO 112 8,0 C 6,0 C 14,5 km/h (3 Bft)
12.06.2012 14:15 9,4 C 91 % 0,0 l/m 8,7 km/h (2 Bft) O 90 8,0 C 6,1 C 11,9 km/h (2 Bft)
12.06.2012 14:20 9,5 C 91 % 0,7 l/m 8,0 km/h (2 Bft) SO 135 8,1 C 6,9 C 16,1 km/h (3 Bft)
12.06.2012 14:25 9,5 C 91 % 0,0 l/m 7,6 km/h (2 Bft) SO 135 8,1 C 7,3 C 2,3 km/h (1 Bft)
12.06.2012 14:30 9,4 C 91 % 0,0 l/m 7,1 km/h (2 Bft) O-SO 112 8,0 C 7,8 C 15,4 km/h (3 Bft)
12.06.2012 14:35 9,3 C 91 % 0,7 l/m 6,6 km/h (2 Bft) W-SW 247 7,9 C 8,2 C 6,0 km/h (2 Bft)
12.06.2012 14:40 9,3 C 91 % 0,0 l/m 7,2 km/h (2 Bft) SO 135 7,9 C 7,5 C 12,6 km/h (3 Bft)
12.06.2012 14:45 9,4 C 91 % 0,7 l/m 6,0 km/h (2 Bft) O-SO 112 8,0 C 8,4 C 8,0 km/h (2 Bft)
12.06.2012 14:50 9,3 C 91 % 0,0 l/m 6,6 km/h (2 Bft) O-SO 112 7,9 C 8,2 C 8,2 km/h (2 Bft)
12.06.2012 14:55 9,5 C 91 % 0,7 l/m 7,2 km/h (2 Bft) SO 135 8,1 C 7,5 C 9,2 km/h (2 Bft)
12.06.2012 15:00 9,4 C 91 % 0,0 l/m 7,2 km/h (2 Bft) O-SO 112 8,0 C 7,6 C 10,1 km/h (2 Bft)
12.06.2012 15:05 9,4 C 91 % 0,7 l/m 6,3 km/h (2 Bft) O-SO 112 8,0 C 8,5 C 2,7 km/h (1 Bft)
12.06.2012 15:10 9,6 C 91 % 0,0 l/m 5,8 km/h (2 Bft) SO 135 8,2 C 8,8 C 9,8 km/h (2 Bft)
12.06.2012 15:15 9,6 C 91 % 0,0 l/m 6,4 km/h (2 Bft) S 180 8,2 C 8,6 C 6,6 km/h (2 Bft)
12.06.2012 15:20 9,6 C 91 % 0,0 l/m 8,2 km/h (2 Bft) O-SO 112 8,2 C 7,1 C 9,2 km/h (2 Bft)
12.06.2012 15:25 9,8 C 91 % 0,0 l/m 6,8 km/h (2 Bft) O-SO 112 8,4 C 8,5 C 6,3 km/h (2 Bft)
12.06.2012 15:30 9,8 C 91 % 0,0 l/m 5,1 km/h (1 Bft) S 180 8,4 C 9,4 C 3,9 km/h (1 Bft)
12.06.2012 15:35 9,8 C 91 % 0,0 l/m 4,2 km/h (1 Bft) O 90 8,4 C 9,9 C 7,1 km/h (2 Bft)
12.06.2012 15:40 9,8 C 91 % 0,0 l/m 5,1 km/h (1 Bft) SO 135 8,4 C 9,4 C 8,9 km/h (2 Bft)
12.06.2012 15:45 9,6 C 91 % 0,0 l/m 5,6 km/h (1 Bft) O-SO 112 8,2 C 9,2 C 10,5 km/h (2 Bft)
12.06.2012 15:50 9,3 C 91 % 0,7 l/m 6,6 km/h (2 Bft) O-SO 112 7,9 C 8,6 C 8,9 km/h (2 Bft)
12.06.2012 15:55 9,3 C 90 % 0,0 l/m 7,4 km/h (2 Bft) SO 135 7,7 C 7,4 C 6,9 km/h (2 Bft)
12.06.2012 16:00 9,2 C 90 % 0,0 l/m 7,2 km/h (2 Bft) O 90 7,6 C 7,5 C 8,0 km/h (2 Bft)
12.06.2012 16:05 9,1 C 90 % 0,0 l/m 6,8 km/h (2 Bft) S 180 7,5 C 7,8 C 8,2 km/h (2 Bft)
12.06.2012 16:10 9,0 C 90 % 0,0 l/m 5,8 km/h (2 Bft) NO 45 7,4 C 8,2 C 8,4 km/h (2 Bft)
12.06.2012 16:15 8,8 C 90 % 0,0 l/m 5,5 km/h (1 Bft) O-NO 67 7,3 C 8,2 C 16,6 km/h (3 Bft)
12.06.2012 16:20 8,7 C 90 % 0,0 l/m 6,1 km/h (2 Bft) S-SO 157 7,2 C 7,9 C 4,5 km/h (1 Bft)
12.06.2012 16:25 8,7 C 90 % 0,7 l/m 6,0 km/h (2 Bft) O-SO 112 7,2 C 7,9 C 6,3 km/h (2 Bft)
12.06.2012 16:30 8,6 C 90 % 0,0 l/m 5,0 km/h (1 Bft) O-SO 112 7,1 C 7,9 C 5,6 km/h (1 Bft)
12.06.2012 16:35 8,5 C 90 % 0,0 l/m 4,7 km/h (1 Bft) S 180 7,0 C 8,0 C 4,3 km/h (1 Bft)
12.06.2012 16:40 8,5 C 90 % 0,0 l/m 4,2 km/h (1 Bft) SO 135 7,0 C 8,1 C 10,1 km/h (2 Bft)
12.06.2012 16:45 8,5 C 91 % 0,0 l/m 4,2 km/h (1 Bft) S 180 7,1 C 8,1 C 8,9 km/h (2 Bft)
12.06.2012 16:50 8,4 C 91 % 0,0 l/m 4,5 km/h (1 Bft) O-SO 112 7,0 C 7,9 C 8,0 km/h (2 Bft)
12.06.2012 16:55 8,4 C 91 % 0,7 l/m 4,0 km/h (1 Bft) O-SO 112 7,0 C 7,9 C 4,0 km/h (1 Bft)
12.06.2012 17:00 8,1 C 91 % 0,0 l/m 3,4 km/h (1 Bft) O-SO 112 6,7 C 8,0 C 6,1 km/h (2 Bft)
12.06.2012 17:05 8,2 C 91 % 0,0 l/m 3,7 km/h (1 Bft) O 90 6,8 C 8,0 C 7,4 km/h (2 Bft)
12.06.2012 17:10 8,1 C 91 % 0,7 l/m 4,7 km/h (1 Bft) NO 45 6,7 C 7,3 C 7,4 km/h (2 Bft)
12.06.2012 17:15 8,1 C 91 % 0,0 l/m 3,9 km/h (1 Bft) W-SW 247 6,7 C 7,7 C 1,6 km/h (1 Bft)
12.06.2012 17:20 8,1 C 92 % 0,0 l/m 2,3 km/h (1 Bft) N-NO 22 6,9 C 7,8 C 6,9 km/h (2 Bft)
12.06.2012 17:25 7,9 C 92 % 0,0 l/m 3,2 km/h (1 Bft) O-SO 112 6,7 C 7,8 C 4,0 km/h (1 Bft)
12.06.2012 17:30 7,9 C 92 % 0,7 l/m 4,2 km/h (1 Bft) O-SO 112 6,7 C 7,4 C 1,9 km/h (1 Bft)
12.06.2012 17:35 7,9 C 92 % 0,0 l/m 3,5 km/h (1 Bft) O-SO 112 6,7 C 7,7 C 5,5 km/h (1 Bft)
12.06.2012 17:40 7,8 C 92 % 0,7 l/m 3,5 km/h (1 Bft) SO 135 6,6 C 7,7 C 6,8 km/h (2 Bft)
12.06.2012 17:45 7,9 C 92 % 0,0 l/m 3,4 km/h (1 Bft) O-SO 112 6,7 C 7,7 C 2,6 km/h (1 Bft)
12.06.2012 17:50 7,9 C 92 % 0,7 l/m 3,4 km/h (1 Bft) SO 135 6,7 C 7,7 C 3,9 km/h (1 Bft)
12.06.2012 17:55 7,8 C 92 % 0,0 l/m 3,1 km/h (1 Bft) S 180 6,6 C 7,7 C 3,1 km/h (1 Bft)
12.06.2012 18:00 7,9 C 93 % 0,7 l/m 3,7 km/h (1 Bft) SO 135 6,8 C 7,6 C 5,1 km/h (1 Bft)
12.06.2012 18:05 7,8 C 92 % 0,0 l/m 4,5 km/h (1 Bft) SO 135 6,6 C 7,2 C 8,2 km/h (2 Bft)
12.06.2012 18:10 7,9 C 93 % 0,7 l/m 4,0 km/h (1 Bft) SO 135 6,8 C 7,4 C 3,1 km/h (1 Bft)
12.06.2012 18:15 7,8 C 93 % 0,0 l/m 3,2 km/h (1 Bft) N-NO 22 6,7 C 7,6 C 3,4 km/h (1 Bft)
12.06.2012 18:20 7,9 C 93 % 0,0 l/m 2,4 km/h (1 Bft) NO 45 6,8 C 7,7 C 2,4 km/h (1 Bft)
12.06.2012 18:25 7,9 C 93 % 0,0 l/m 2,6 km/h (1 Bft) O-SO 112 6,8 C 7,7 C 6,6 km/h (2 Bft)
12.06.2012 18:30 8,0 C 93 % 0,0 l/m 2,7 km/h (1 Bft) O-SO 112 6,9 C 7,8 C 2,7 km/h (1 Bft)
12.06.2012 18:35 8,0 C 93 % 0,7 l/m 2,9 km/h (1 Bft) O 90 6,9 C 7,8 C 1,6 km/h (1 Bft)
12.06.2012 18:40 8,0 C 93 % 0,0 l/m 2,6 km/h (1 Bft) SO 135 6,9 C 7,8 C 4,5 km/h (1 Bft)
12.06.2012 18:45 8,1 C 93 % 0,0 l/m 2,9 km/h (1 Bft) O-SO 112 7,0 C 7,8 C 10,6 km/h (2 Bft)
12.06.2012 18:50 8,1 C 93 % 0,0 l/m 3,1 km/h (1 Bft) O-SO 112 7,0 C 7,8 C 3,9 km/h (1 Bft)
12.06.2012 18:55 8,1 C 93 % 0,0 l/m 2,6 km/h (1 Bft) SO 135 7,0 C 7,8 C 2,4 km/h (1 Bft)
12.06.2012 19:00 8,1 C 93 % 0,0 l/m 2,4 km/h (1 Bft) SO 135 7,0 C 7,9 C 3,1 km/h (1 Bft)
12.06.2012 19:05 8,1 C 93 % 0,0 l/m 2,7 km/h (1 Bft) O-SO 112 7,0 C 7,9 C 4,5 km/h (1 Bft)
12.06.2012 19:10 8,1 C 93 % 0,0 l/m 1,9 km/h (1 Bft) SO 135 7,0 C 7,9 C 0,0 km/h (0 Bft)
12.06.2012 19:15 8,1 C 93 % 0,0 l/m 1,1 km/h (1 Bft) SO 135 7,0 C 8,0 C 4,3 km/h (1 Bft)
12.06.2012 19:20 8,0 C 93 % 0,0 l/m 1,6 km/h (1 Bft) N 360 6,9 C 7,9 C 2,6 km/h (1 Bft)
12.06.2012 19:25 8,0 C 93 % 0,0 l/m 2,1 km/h (1 Bft) O 90 6,9 C 7,9 C 5,5 km/h (1 Bft)
12.06.2012 19:30 8,1 C 93 % 0,0 l/m 1,9 km/h (1 Bft) O-SO 112 7,0 C 7,9 C 2,3 km/h (1 Bft)
12.06.2012 19:35 8,0 C 93 % 0,0 l/m 2,1 km/h (1 Bft) NO 45 6,9 C 7,9 C 3,4 km/h (1 Bft)
12.06.2012 19:40 8,0 C 93 % 0,0 l/m 1,8 km/h (1 Bft) SO 135 6,9 C 7,9 C 1,9 km/h (1 Bft)
12.06.2012 19:45 8,0 C 93 % 0,7 l/m 1,0 km/h (0 Bft) NO 45 6,9 C 7,9 C 0,0 km/h (0 Bft)
12.06.2012 19:50 7,9 C 94 % 0,0 l/m 1,3 km/h (1 Bft) O 90 7,0 C 7,8 C 2,7 km/h (1 Bft)
12.06.2012 19:55 7,9 C 94 % 0,0 l/m 1,8 km/h (1 Bft) O-NO 67 7,0 C 7,8 C 4,2 km/h (1 Bft)
12.06.2012 20:00 7,9 C 94 % 0,0 l/m 1,9 km/h (1 Bft) S 180 7,0 C 7,8 C 0,0 km/h (0 Bft)
12.06.2012 20:05 7,9 C 94 % 0,0 l/m 1,8 km/h (1 Bft) N-NO 22 7,0 C 7,8 C 0,0 km/h (0 Bft)
12.06.2012 20:10 7,9 C 94 % 0,0 l/m 1,0 km/h (0 Bft) W-NW 292 7,0 C 7,8 C 0,0 km/h (0 Bft)
12.06.2012 20:15 7,9 C 94 % 0,0 l/m 1,0 km/h (0 Bft) NO 45 7,0 C 7,8 C 0,0 km/h (0 Bft)
12.06.2012 20:20 7,9 C 94 % 0,0 l/m 0,6 km/h (0 Bft) S-SO 157 7,0 C 7,8 C 0,0 km/h (0 Bft)
12.06.2012 20:25 7,9 C 94 % 0,0 l/m 0,8 km/h (0 Bft) N-NO 22 7,0 C 7,8 C 1,8 km/h (1 Bft)
12.06.2012 20:30 7,9 C 94 % 0,7 l/m 1,0 km/h (0 Bft) N-NO 22 7,0 C 7,8 C 0,0 km/h (0 Bft)
12.06.2012 20:35 7,9 C 94 % 0,0 l/m 1,1 km/h (1 Bft) N-NO 22 7,0 C 7,8 C 0,0 km/h (0 Bft)
12.06.2012 20:40 7,9 C 94 % 0,0 l/m 1,4 km/h (1 Bft) N 360 7,0 C 7,8 C 1,6 km/h (1 Bft)
12.06.2012 20:45 7,9 C 94 % 0,0 l/m 1,3 km/h (1 Bft) NO 45 7,0 C 7,8 C 2,1 km/h (1 Bft)
12.06.2012 20:50 7,9 C 94 % 0,0 l/m 1,3 km/h (1 Bft) O 90 7,0 C 7,8 C 5,8 km/h (2 Bft)
12.06.2012 20:55 7,9 C 94 % 0,0 l/m 2,3 km/h (1 Bft) O-SO 112 7,0 C 7,8 C 3,7 km/h (1 Bft)
12.06.2012 21:00 7,9 C 94 % 0,0 l/m 2,9 km/h (1 Bft) N-NO 22 7,0 C 7,8 C 0,0 km/h (0 Bft)
12.06.2012 21:05 7,9 C 94 % 0,0 l/m 1,9 km/h (1 Bft) N 360 7,0 C 7,8 C 0,0 km/h (0 Bft)
12.06.2012 21:10 7,9 C 94 % 0,0 l/m 1,6 km/h (1 Bft) O 90 7,0 C 7,8 C 3,9 km/h (1 Bft)
12.06.2012 21:15 7,9 C 94 % 0,0 l/m 2,3 km/h (1 Bft) O-NO 67 7,0 C 7,8 C 0,0 km/h (0 Bft)
12.06.2012 21:20 7,9 C 94 % 0,0 l/m 2,9 km/h (1 Bft) O-NO 67 7,0 C 7,8 C 6,1 km/h (2 Bft)
12.06.2012 21:25 7,9 C 94 % 0,0 l/m 2,7 km/h (1 Bft) S-SO 157 7,0 C 7,8 C 5,0 km/h (1 Bft)
12.06.2012 21:30 8,0 C 94 % 0,7 l/m 3,4 km/h (1 Bft) SO 135 7,1 C 7,8 C 3,7 km/h (1 Bft)
12.06.2012 21:35 7,9 C 94 % 0,0 l/m 2,6 km/h (1 Bft) O 90 7,0 C 7,8 C 3,4 km/h (1 Bft)
12.06.2012 21:40 8,0 C 94 % 0,0 l/m 2,4 km/h (1 Bft) O-SO 112 7,1 C 7,8 C 3,5 km/h (1 Bft)
12.06.2012 21:45 7,9 C 94 % 0,0 l/m 2,7 km/h (1 Bft) S 180 7,0 C 7,8 C 4,2 km/h (1 Bft)
12.06.2012 21:50 8,0 C 94 % 0,0 l/m 2,9 km/h (1 Bft) N 360 7,1 C 7,8 C 3,4 km/h (1 Bft)
12.06.2012 21:55 7,9 C 94 % 0,0 l/m 2,6 km/h (1 Bft) S-SO 157 7,0 C 7,8 C 1,8 km/h (1 Bft)
12.06.2012 22:00 8,0 C 94 % 0,0 l/m 2,4 km/h (1 Bft) O-SO 112 7,1 C 7,8 C 3,2 km/h (1 Bft)
12.06.2012 22:05 7,9 C 94 % 0,7 l/m 2,6 km/h (1 Bft) N-NO 22 7,0 C 7,8 C 0,0 km/h (0 Bft)
12.06.2012 22:10 7,9 C 94 % 0,0 l/m 3,4 km/h (1 Bft) S-SO 157 7,0 C 7,8 C 4,5 km/h (1 Bft)
12.06.2012 22:15 7,9 C 94 % 0,0 l/m 3,4 km/h (1 Bft) O 90 7,0 C 7,8 C 5,6 km/h (1 Bft)
12.06.2012 22:20 7,9 C 94 % 0,0 l/m 2,6 km/h (1 Bft) O-SO 112 7,0 C 7,8 C 2,9 km/h (1 Bft)
12.06.2012 22:25 7,9 C 94 % 0,0 l/m 1,8 km/h (1 Bft) O-SO 112 7,0 C 7,8 C 3,1 km/h (1 Bft)
12.06.2012 22:30 7,9 C 94 % 0,0 l/m 0,8 km/h (0 Bft) O 90 7,0 C 7,8 C 0,0 km/h (0 Bft)
12.06.2012 22:35 7,9 C 95 % 0,0 l/m 1,1 km/h (1 Bft) O-SO 112 7,1 C 7,8 C 2,9 km/h (1 Bft)
12.06.2012 22:40 7,9 C 95 % 0,0 l/m 2,4 km/h (1 Bft) S 180 7,1 C 7,8 C 1,9 km/h (1 Bft)
12.06.2012 22:45 7,9 C 95 % 0,0 l/m 2,9 km/h (1 Bft) NO 45 7,1 C 7,8 C 4,8 km/h (1 Bft)
12.06.2012 22:50 7,9 C 95 % 0,0 l/m 1,9 km/h (1 Bft) O-SO 112 7,1 C 7,8 C 2,6 km/h (1 Bft)
12.06.2012 22:55 7,9 C 95 % 0,0 l/m 1,9 km/h (1 Bft) O-NO 67 7,1 C 7,8 C 2,3 km/h (1 Bft)
12.06.2012 23:00 7,9 C 95 % 0,7 l/m 1,4 km/h (1 Bft) S 180 7,1 C 7,8 C 1,6 km/h (1 Bft)
12.06.2012 23:05 7,9 C 95 % 0,0 l/m 1,4 km/h (1 Bft) O 90 7,1 C 7,8 C 1,9 km/h (1 Bft)
12.06.2012 23:10 7,9 C 95 % 0,0 l/m 1,9 km/h (1 Bft) O-SO 112 7,1 C 7,8 C 3,9 km/h (1 Bft)
12.06.2012 23:15 7,9 C 95 % 0,0 l/m 2,7 km/h (1 Bft) S 180 7,1 C 7,8 C 2,7 km/h (1 Bft)
12.06.2012 23:20 7,9 C 95 % 0,0 l/m 2,4 km/h (1 Bft) N-NW 337 7,1 C 7,8 C 0,0 km/h (0 Bft)
12.06.2012 23:25 7,9 C 95 % 0,0 l/m 2,3 km/h (1 Bft) O-NO 67 7,1 C 7,8 C 4,3 km/h (1 Bft)
12.06.2012 23:30 7,9 C 95 % 0,0 l/m 2,9 km/h (1 Bft) O-SO 112 7,1 C 7,8 C 5,8 km/h (2 Bft)
12.06.2012 23:35 7,9 C 95 % 0,0 l/m 3,5 km/h (1 Bft) O 90 7,1 C 7,8 C 7,7 km/h (2 Bft)
12.06.2012 23:40 7,9 C 95 % 0,0 l/m 4,2 km/h (1 Bft) O-SO 112 7,1 C 7,5 C 0,0 km/h (0 Bft)
12.06.2012 23:45 7,9 C 95 % 0,0 l/m 2,9 km/h (1 Bft) S-SO 157 7,1 C 7,8 C 4,5 km/h (1 Bft)
12.06.2012 23:50 7,9 C 95 % 0,0 l/m 1,4 km/h (1 Bft) N-NW 337 7,1 C 7,8 C 0,0 km/h (0 Bft)
12.06.2012 23:55 7,9 C 95 % 0,0 l/m 1,4 km/h (1 Bft) O 90 7,1 C 7,8 C 2,9 km/h (1 Bft)
_ Min-Zeit 18:15 12:05 - 08:50 - - 04:20 14:00 23:50
Minimum _ 7,8 C 70 % - 0,0 km/h (0 Bft) - - 5,8 C 5,1 C 0,0 km/h (0 Bft)
_ Max-Zeit 12:20 23:55 23:00 14:00 - - 11:00 09:50 14:00
Maximum _ 13,8 C 95 % 0,7 l/m 10,0 km/h
S-SO (2 Bft)
- - 9,4 C 14,5 C 18,2 km/h
S-SO (3 Bft)
Durchschnitt _ 9,7 C 85 % #19,9 l/m 2,4 km/h (1 Bft) O-SO - 7,3 C 9,5 C 3,3 km/h (1 Bft)